View from above orbital plane
|
View from above satellite
|
Ground track
|
The orbit data is extracted from the following two-line orbital elements,
1 40928U 15051D 21023.79047192 .00003659 00000-0 81072-4 0 9997
2 40928 97.0915 52.2094 0011849 100.9946 14.3604 15.44321379299355
Epoch (UTC): | 23 January 2021 18:58:16 |
Eccentricity: | 0.0011849 |
inclination: | 97.0915° |
perigee height: | 425 km |
apogee height: | 441 km |
right ascension of ascending node: | 52.2094° |
argument of perigee: | 100.9946° |
revolutions per day: | 15.44321379 |
mean anomaly at epoch: | 14.3604° |
orbit number at epoch: | 29935 |
The dashed part of the orbit path shows where the satellite is in the earth's shadow,
|
|